Total_Precipitation_Accumulation
0.01 0.03 0.06 0.08 0.06 0.05 0.04 0.03 0.03 0.03 0.05 0.06 0.06 0.06 0.07 0.08 0.08 0.08 0.08 0.08 0.07 0.07 0.09 0.10 0.10 0.11 0.11 0.12 0.17 0.19 0.18 0.17 0.12 0.08 0.08 0.09 0.05 0.02 0.02 0.03 0.04 0.11 0.05
0.02 0.03 0.05 0.06 0.05 0.04 0.03 0.02 0.02 0.02 0.04 0.04 0.03 0.03 0.04 0.05 0.05 0.06 0.08 0.08 0.09 0.08 0.08 0.08 0.08 0.09 0.09 0.14 0.23 0.22 0.18 0.14 0.12 0.11 0.09 0.07 0.06 0.04 0.03 0.03 0.03 0.10 0.07
0.01 0.02 0.03 0.04 0.04 0.04 0.03 0.02 0.02 0.02 0.02 0.02 0.01 0.01 0.02 0.03 0.04 0.06 0.08 0.11 0.14 0.15 0.11 0.09 0.10 0.11 0.15 0.21 0.21 0.22 0.21 0.16 0.10 0.09 0.08 0.12 0.15 0.08 0.07 0.04 0.01 0.04 0.04
0.00 0.01 0.02 0.03 0.04 0.04 0.03 0.03 0.02 0.02 0.02 0.02 0.01 0.01 0.01 0.02 0.04 0.06 0.08 0.13 0.17 0.23 0.26 0.23 0.18 0.19 0.24 0.26 0.19 0.19 0.25 0.22 0.13 0.07 0.05 0.14 0.27 0.24 0.15 0.10 0.03 0.03 0.05
0.00 0.00 0.01 0.03 0.04 0.04 0.03 0.03 0.02 0.02 0.02 0.02 0.02 0.02 0.02 0.02 0.03 0.04 0.06 0.10 0.15 0.20 0.25 0.27 0.24 0.26 0.26 0.23 0.18 0.19 0.32 0.34 0.20 0.05 0.05 0.08 0.21 0.40 0.19 0.15 0.09 0.05 0.05
0.00 0.00 0.01 0.03 0.04 0.04 0.04 0.04 0.03 0.03 0.03 0.03 0.03 0.04 0.04 0.04 0.04 0.04 0.05 0.06 0.08 0.12 0.18 0.21 0.22 0.25 0.29 0.27 0.22 0.26 0.41 0.49 0.24 0.08 0.09 0.11 0.20 0.37 0.24 0.19 0.15 0.09 0.06
0.00 0.00 0.00 0.02 0.03 0.04 0.05 0.05 0.05 0.05 0.05 0.05 0.05 0.06 0.06 0.06 0.05 0.06 0.06 0.06 0.04 0.05 0.09 0.16 0.21 0.24 0.29 0.30 0.30 0.39 0.52 0.51 0.25 0.23 0.15 0.12 0.22 0.35 0.33 0.27 0.21 0.13 0.08
0.00 0.00 0.01 0.01 0.02 0.03 0.04 0.06 0.07 0.08 0.08 0.08 0.08 0.08 0.08 0.08 0.09 0.10 0.10 0.09 0.07 0.05 0.06 0.08 0.13 0.20 0.24 0.26 0.32 0.45 0.51 0.34 0.13 0.10 0.08 0.09 0.20 0.38 0.53 0.47 0.32 0.22 0.14
0.00 0.00 0.00 0.00 0.01 0.01 0.03 0.06 0.08 0.09 0.09 0.08 0.08 0.08 0.06 0.06 0.08 0.11 0.13 0.11 0.09 0.08 0.08 0.06 0.08 0.11 0.14 0.18 0.25 0.29 0.27 0.19 0.09 0.13 0.10 0.14 0.21 0.46 0.72 0.68 0.49 0.32 0.22
0.00 0.00 0.00 0.00 0.00 0.00 0.01 0.04 0.07 0.09 0.09 0.08 0.08 0.07 0.05 0.05 0.06 0.08 0.08 0.08 0.09 0.10 0.09 0.07 0.08 0.08 0.08 0.09 0.13 0.15 0.12 0.11 0.06 0.12 0.18 0.19 0.18 0.46 0.79 0.78 0.64 0.47 0.35
0.00 0.00 0.00 0.00 0.00 0.00 0.00 0.02 0.05 0.07 0.07 0.06 0.06 0.06 0.06 0.04 0.03 0.04 0.04 0.04 0.06 0.08 0.08 0.08 0.08 0.07 0.06 0.04 0.05 0.07 0.06 0.04 0.09 0.16 0.19 0.16 0.20 0.47 0.80 0.84 0.73 0.60 0.50
0.00 0.00 0.00 0.00 0.00 0.00 0.00 0.01 0.03 0.04 0.05 0.05 0.05 0.06 0.07 0.06 0.05 0.05 0.05 0.05 0.07 0.07 0.07 0.10 0.10 0.07 0.06 0.06 0.08 0.09 0.03 0.03 0.08 0.09 0.10 0.10 0.23 0.49 0.76 0.85 0.83 0.71 0.65
0.00 0.00 0.00 0.00 0.00 0.00 0.00 0.01 0.01 0.02 0.05 0.07 0.08 0.10 0.15 0.16 0.13 0.12 0.13 0.13 0.10 0.09 0.13 0.16 0.17 0.15 0.17 0.19 0.21 0.16 0.10 0.07 0.06 0.06 0.04 0.06 0.15 0.35 0.62 0.81 0.89 0.87 0.85
0.00 0.00 0.00 0.00 0.00 0.00 0.00 0.01 0.01 0.01 0.03 0.07 0.09 0.12 0.15 0.18 0.18 0.18 0.18 0.18 0.16 0.15 0.17 0.22 0.24 0.22 0.21 0.20 0.23 0.21 0.20 0.16 0.10 0.08 0.05 0.06 0.08 0.15 0.31 0.53 0.74 0.88 0.94
0.00 0.00 0.00 0.00 0.00 0.00 0.00 0.00 0.00 0.01 0.02 0.03 0.04 0.06 0.07 0.09 0.12 0.12 0.11 0.10 0.11 0.12 0.13 0.15 0.17 0.19 0.20 0.19 0.19 0.21 0.23 0.22 0.18 0.15 0.12 0.11 0.08 0.09 0.16 0.27 0.46 0.75 0.92
0.00 0.00 0.00 0.00 0.00 0.00 0.00 0.00 0.00 0.00 0.00 0.01 0.01 0.02 0.02 0.03 0.03 0.03 0.03 0.02 0.02 0.03 0.04 0.04 0.05 0.06 0.08 0.13 0.14 0.14 0.15 0.17 0.21 0.23 0.22 0.21 0.13 0.11 0.14 0.20 0.30 0.50 0.76
0.00 0.00 0.00 0.00 0.00 0.00 0.00 0.00 0.00 0.00 0.00 0.00 0.00 0.00 0.00 0.00 0.00 0.00 0.01 0.01 0.00 0.01 0.01 0.01 0.01 0.02 0.03 0.07 0.10 0.12 0.10 0.12 0.16 0.23 0.25 0.26 0.23 0.18 0.17 0.20 0.25 0.35 0.55
0.00 0.00 0.00 0.00 0.00 0.00 0.00 0.00 0.00 0.00 0.00 0.00 0.00 0.00 0.00 0.00 0.00 0.00 0.01 0.01 0.01 0.01 0.01 0.02 0.02 0.03 0.05 0.06 0.10 0.14 0.13 0.12 0.14 0.21 0.27 0.27 0.27 0.24 0.21 0.20 0.25 0.34 0.45
0.00 0.00 0.00 0.00 0.00 0.00 0.00 0.00 0.00 0.00 0.00 0.00 0.00 0.00 0.00 0.00 0.00 0.00 0.01 0.01 0.02 0.03 0.03 0.03 0.03 0.05 0.08 0.09 0.13 0.16 0.19 0.17 0.16 0.19 0.24 0.30 0.32 0.30 0.31 0.24 0.23 0.30 0.41
0.00 0.00 0.00 0.00 0.00 0.00 0.00 0.00 0.00 0.00 0.00 0.00 0.00 0.00 0.00 0.00 0.00 0.00 0.01 0.01 0.01 0.02 0.03 0.04 0.05 0.07 0.09 0.11 0.13 0.14 0.19 0.24 0.24 0.23 0.29 0.40 0.40 0.34 0.33 0.33 0.28 0.23 0.26
0.00 0.00 0.00 0.00 0.00 0.00 0.00 0.00 0.00 0.00 0.00 0.00 0.00 0.00 0.00 0.00 0.00 0.01 0.01 0.01 0.01 0.02 0.03 0.03 0.04 0.05 0.05 0.07 0.10 0.11 0.14 0.17 0.18 0.19 0.24 0.37 0.50 0.53 0.47 0.46 0.45 0.37 0.28
0.00 0.00 0.00 0.00 0.00 0.00 0.00 0.00 0.00 0.00 0.00 0.00 0.00 0.00 0.00 0.00 0.00 0.00 0.00 0.00 0.01 0.01 0.01 0.01 0.02 0.03 0.02 0.02 0.06 0.09 0.07 0.08 0.13 0.13 0.13 0.21 0.33 0.41 0.45 0.48 0.52 0.53 0.44
0.00 0.00 0.00 0.00 0.00 0.00 0.00 0.00 0.00 0.00 0.00 0.00 0.00 0.00 0.00 0.00 0.00 0.00 0.00 0.00 0.00 0.00 0.01 0.01 0.01 0.03 0.04 0.03 0.05 0.14 0.16 0.10 0.08 0.06 0.08 0.13 0.16 0.19 0.24 0.31 0.39 0.43 0.49
0.00 0.00 0.00 0.00 0.00 0.00 0.00 0.00 0.00 0.00 0.00 0.00 0.00 0.00 0.00 0.00 0.00 0.00 0.00 0.00 0.01 0.01 0.01 0.01 0.01 0.03 0.05 0.06 0.05 0.07 0.12 0.13 0.14 0.07 0.03 0.03 0.03 0.04 0.06 0.11 0.20 0.27 0.35
0.00 0.00 0.00 0.00 0.00 0.00 0.00 0.00 0.00 0.00 0.00 0.00 0.00 0.00 0.00 0.00 0.00 0.00 0.00 0.01 0.01 0.01 0.02 0.02 0.02 0.03 0.05 0.08 0.09 0.09 0.09 0.08 0.09 0.12 0.05 0.02 0.03 0.03 0.04 0.05 0.08 0.12 0.20
0.00 0.00 0.00 0.00 0.00 0.00 0.00 0.00 0.00 0.00 0.00 0.00 0.00 0.00 0.00 0.01 0.01 0.00 0.01 0.01 0.01 0.02 0.02 0.03 0.04 0.05 0.06 0.08 0.11 0.13 0.15 0.15 0.11 0.13 0.09 0.03 0.02 0.03 0.04 0.04 0.05 0.06 0.12